St. Joseph, KS

6:45 AM CDT on March 23, 2017 (GMT -0500)
Rosecrans Memorial

Weather History for KSTJ - June, 2013

Change the Weather History Date:

Monday, June 17, 2013

  Actual Average Record
Temperature  
Mean Temperature 78 °F 74 °F  
Max Temperature 88 °F 85 °F 102 °F (1918)
Min Temperature 67 °F 64 °F 47 °F (1974)
Degree Days  
Heating Degree Days 0 0  
Month to date heating degree days 15 6  
Since 1 June heating degree days 15 6  
Since 1 July heating degree days 5614 5456  
Cooling Degree Days 13 9  
Month to date cooling degree days 106 131  
Year to date cooling degree days 232 244  
Since 1 June cooling degree days 106 131  
Growing Degree Days 28 (Base 50)    
Moisture  
Dew Point 66 °F    
Average Humidity 69    
Maximum Humidity 97    
Minimum Humidity 40    
Precipitation  
Precipitation 0.00 in 0.13 in 3.63 in (1928)
Month to date precipitation 1.22 2.69  
Year to date precipitation 15.27 15.64  
Sea Level Pressure  
Sea Level Pressure 29.95 in    
Wind  
Wind Speed 4 mph (NNE)    
Max Wind Speed 13 mph    
Max Gust Speed 15 mph    
Visibility 9 miles    
Events      
T = Trace of Precipitation, MM = Missing Value Source: NWS Daily Summary

Daily Weather History Graph

Daily Weather History Graph

Search for Another Location

Airport or City:

Trip Planner

Search our weather history database for the weather conditions in past years. The results will help you decide how hot, cold, wet, or windy it might be!

Date:

Astronomy

Jun. 17, 2013 Rise Set
Actual Time 5:51 AM CDT 8:50 PM CDT
Civil Twilight 5:18 AM CDT 9:22 PM CDT
Nautical Twilight 4:37 AM CDT 10:04 PM CDT
Astronomical Twilight 3:48 AM CDT 10:52 PM CDT
Moon 2:30 PM CDT (6/17) 1:26 AM CDT (6/17)
Length of Visible Light 16h 04m
Length of Day
14h 59m
First Quarter, 60% of the Moon is Illuminated
Jun 17
First Quarter
Jun 23
Full
Jun 29
Last Quarter
Jul 8
New
Jul 15
First Quarter

Hourly Weather History & Observations

Time (CDT) Temp. Heat Index Dew Point Humidity Pressure Visibility Wind Dir Wind Speed Gust Speed Precip Events Conditions
12:53 AM 69.1 °F - 66.9 °F 93% 29.94 in 9.0 mi Calm Calm - N/A   Clear
1:53 AM 70.0 °F - 68.0 °F 93% 29.91 in 8.0 mi ENE 4.6 mph - N/A   Clear
2:53 AM 69.1 °F - 66.9 °F 93% 29.92 in 5.0 mi Calm Calm - N/A   Clear
3:53 AM 69.1 °F - 66.9 °F 93% 29.92 in 7.0 mi NNW 5.8 mph - N/A   Clear
4:53 AM 69.1 °F - 66.9 °F 93% 29.92 in 8.0 mi NE 3.5 mph - N/A   Scattered Clouds
5:53 AM 70.0 °F - 66.9 °F 90% 29.94 in 9.0 mi NNW 5.8 mph - N/A   Mostly Cloudy
6:15 AM 69.8 °F - 66.2 °F 88% 29.96 in 8.0 mi North 6.9 mph - N/A   Mostly Cloudy
6:53 AM 70.0 °F - 66.9 °F 90% 29.94 in 8.0 mi North 6.9 mph - N/A   Scattered Clouds
7:26 AM 71.6 °F - 68.0 °F 88% 29.97 in 8.0 mi Calm Calm - N/A   Overcast
7:51 AM 69.8 °F - 68.0 °F 94% 29.96 in 8.0 mi North 5.8 mph - N/A   Scattered Clouds
7:53 AM 70.0 °F - 68.0 °F 93% 29.94 in 8.0 mi NNW 4.6 mph - N/A   Partly Cloudy
8:53 AM 71.1 °F - 68.0 °F 90% 29.95 in 9.0 mi North 9.2 mph - N/A   Clear
9:53 AM 73.0 °F - 68.0 °F 84% 29.96 in 10.0 mi NNE 3.5 mph - N/A   Mostly Cloudy
10:16 AM 73.4 °F - 69.8 °F 88% 29.98 in 10.0 mi Calm Calm - N/A   Mostly Cloudy
10:53 AM 75.9 °F - 69.1 °F 79% 29.98 in 10.0 mi Calm Calm - N/A   Overcast
11:53 AM 80.1 °F 82.9 °F 69.1 °F 69% 29.98 in 10.0 mi NE 8.1 mph - N/A   Scattered Clouds
12:53 PM 82.0 °F 84.1 °F 66.0 °F 58% 29.98 in 10.0 mi NE 3.5 mph - N/A   Clear
1:53 PM 84.0 °F 85.8 °F 64.9 °F 53% 29.96 in 10.0 mi North 8.1 mph - N/A   Scattered Clouds
2:53 PM 86.0 °F 87.3 °F 64.0 °F 48% 29.95 in 10.0 mi NE 6.9 mph - N/A   Scattered Clouds
3:53 PM 88.0 °F 87.9 °F 61.0 °F 40% 29.94 in 10.0 mi NNE 5.8 mph - N/A   Clear
4:53 PM 86.0 °F 86.1 °F 61.0 °F 43% 29.94 in 10.0 mi East 4.6 mph - N/A   Clear
5:53 PM 86.0 °F 85.4 °F 59.0 °F 40% 29.92 in 10.0 mi Calm Calm - N/A   Clear
6:53 PM 84.9 °F 85.4 °F 62.1 °F 46% 29.91 in 10.0 mi ENE 5.8 mph - N/A   Clear
7:53 PM 82.9 °F 84.0 °F 63.0 °F 51% 29.91 in 10.0 mi ENE 3.5 mph - N/A   Clear
8:53 PM 79.0 °F - 64.9 °F 62% 29.92 in 10.0 mi SSW 3.5 mph - N/A   Clear
9:53 PM 73.9 °F - 66.0 °F 76% 29.94 in 10.0 mi South 3.5 mph - N/A   Clear
10:53 PM 73.0 °F - 64.9 °F 76% 29.96 in 10.0 mi Calm Calm - N/A   Clear
11:53 PM 70.0 °F - 64.9 °F 84% 29.96 in 10.0 mi Calm Calm - N/A   Clear